Regional Weather Roundup
Issued by NWS Sioux Falls, SD

Home | Current Version | Previous Version | Graphics & Text | Print | Product List | Glossary On
Versions: 1 2 3 4 5 6 7 8 9 10 11 12 13 14 15 16 17 18 19 20 21 22 23 24 25 26 27 28 29 30 31 32 33 34 35 36 37 38 39 40 41 42 43 44 45 46 47 48 49 50
000
ASUS43 KFSD 221910
RWRFSD

WEATHER ROUNDUP FOR SE SOUTH DAKOTA/SW MINNESOTA/NW IOWA
NATIONAL WEATHER SERVICE SIOUX FALLS SD
200 PM CDT WED OCT 22 2014

NOTE: "FAIR" INDICATES FEW OR NO CLOUDS BELOW 12,000 FEET WITH NO
SIGNIFICANT WEATHER AND OR OBSTRUCTIONS TO VISIBILITY.


SDZ038>040-050-052>070-222000-
SOUTHEAST SOUTH DAKOTA

CITY           SKY/WX    TMP DP  RH WIND       PRES   REMARKS
CHAMBERLAIN    CLOUDY    55  52  90 W9        29.97S
HURON          RAIN      55  53  93 NW13      29.91R FOG
MADISON        FAIR      68  50  52 SW20G29   29.94S
MITCHELL       HVY RAIN  57  54  89 W9        29.95R FOG
SIOUX FALLS    PTSUNNY   70  52  52 S21G29    29.94F
WINNER         CLOUDY    58  50  75 NW9       29.99S
YANKTON        CLOUDY    70  54  56 S8        29.94F
$$

MNZ071-072-080-081-089-090-097-098-222000-
SOUTHWEST MINNESOTA

CITY           SKY/WX    TMP DP  RH WIND       PRES   REMARKS
FAIRMONT       MOSUNNY   63  41  45 S23G31    30.06F
JACKSON        MOSUNNY   64  43  45 S15G23    30.04F
LUVERNE        PTSUNNY   72  48  43 S22G28    29.97F
MARSHALL       CLOUDY    66  46  48 S16G24    29.94F
MONTEVIDEO     PTSUNNY   66  46  48 SW10G21   29.95F
PIPESTONE      PTSUNNY   70  48  46 S21G28    29.95F
REDWOOD FALLS  PTSUNNY   67  44  43 S26G33    29.98F
TRACY          CLOUDY    66  47  50 S17G23    29.96F
WINDOM         MOSUNNY   66  45  45 S16G25    30.01F
WORTHINGTON    PTSUNNY   66  46  48 S17G26    30.00F
$$

IAZ001>003-012>014-020>022-031-032-NEZ013-014-SDZ071-222000-
NORTHWEST IOWA

CITY           SKY/WX    TMP DP  RH WIND       PRES   REMARKS
CHEROKEE       MOSUNNY   70  49  48 S18G24    30.03F
DENISON        MOSUNNY   70  50  49 S9G24     30.04F
ESTHERVILLE    MOSUNNY   64  45  49 S23G31    30.05F
LE MARS        MOSUNNY   72  52  49 S17G26    29.99F
ORANGE CITY    MOSUNNY   73  48  40 S21G29    29.99F
SHELDON        MOSUNNY   70  50  49 S20G28    29.99F
SIOUX CITY     MOSUNNY   73  51  46 SE14G23   29.99F
SPENCER        MOSUNNY   68  47  46 S23G29    30.04F
STORM LAKE     MOSUNNY   68  48  49 S21G29    30.05F
$$

ABBREVIATIONS USED IN REMARKS
   TC - TEMPERATURE IN CELSIUS
  WCI - WIND CHILL INDEX
   HX - HEAT INDEX
  VSB - VISIBILITY




USA.gov is the U.S. government's official web portal to all federal, state and local government web resources and services.